Time,TemperatureF,DewpointF,PressureIn,WindDirection,WindDirectionDegrees,WindSpeedMPH,WindSpeedGustMPH,Humidity,HourlyPrecipIn,Conditions,Clouds,dailyrainin,SoftwareType,DateUTC
2013-11-30 00:00:00,44.2,32.0,30.17,West,270,4.0,5.0,62,0.00,,,-99.99,WeatherLink 5.7,2013-11-30 07:00:00,
2013-11-30 00:05:00,44.1,31.9,30.15,West,270,4.0,5.0,62,0.00,,,-99.99,WeatherLink 5.7,2013-11-30 07:05:00,
2013-11-30 00:10:00,44.0,32.2,30.15,West,270,3.0,5.0,63,0.00,,,-99.99,WeatherLink 5.7,2013-11-30 07:10:00,
2013-11-30 00:15:00,43.7,31.9,30.15,West,270,3.0,5.0,63,0.00,,,-99.99,WeatherLink 5.7,2013-11-30 07:15:00,
2013-11-30 00:20:00,43.4,32.0,30.15,West,270,4.0,5.0,64,0.00,,,-99.99,WeatherLink 5.7,2013-11-30 07:20:00,
2013-11-30 00:25:00,43.1,32.1,30.16,West,270,5.0,6.0,65,0.00,,,-99.99,WeatherLink 5.7,2013-11-30 07:25:00,
2013-11-30 00:30:00,42.9,32.3,30.16,West,270,5.0,6.0,66,0.00,,,-99.99,WeatherLink 5.7,2013-11-30 07:30:00,
2013-11-30 00:35:00,42.8,32.2,30.15,West,270,3.0,5.0,66,0.00,,,-99.99,WeatherLink 5.7,2013-11-30 07:35:00,
2013-11-30 00:40:00,42.6,32.0,30.15,West,270,3.0,5.0,66,0.00,,,-99.99,WeatherLink 5.7,2013-11-30 07:40:00,
2013-11-30 00:45:00,42.4,32.2,30.15,West,270,3.0,6.0,67,0.00,,,-99.99,WeatherLink 5.7,2013-11-30 07:45:00,
2013-11-30 00:50:00,42.2,32.0,30.15,West,270,1.0,3.0,67,0.00,,,-99.99,WeatherLink 5.7,2013-11-30 07:50:00,
2013-11-30 00:55:00,41.9,31.7,30.15,West,270,1.0,2.0,67,0.00,,,-99.99,WeatherLink 5.7,2013-11-30 07:55:00,
2013-11-30 01:00:00,41.6,31.8,30.15,West,270,1.0,4.0,68,0.00,,,-99.99,WeatherLink 5.7,2013-11-30 08:00:00,
2013-11-30 01:05:00,41.3,31.9,30.15,West,270,0.0,2.0,69,0.00,,,-99.99,WeatherLink 5.7,2013-11-30 08:05:00,
2013-11-30 01:10:00,41.2,32.2,30.15,West,270,2.0,4.0,70,0.00,,,-99.99,WeatherLink 5.7,2013-11-30 08:10:00,
2013-11-30 01:15:00,41.2,32.2,30.15,West,270,3.0,5.0,70,0.00,,,-99.99,WeatherLink 5.7,2013-11-30 08:15:00,
2013-11-30 01:20:00,41.1,32.4,30.15,West,270,3.0,5.0,71,0.00,,,-99.99,WeatherLink 5.7,2013-11-30 08:20:00,
2013-11-30 01:25:00,41.0,32.3,30.15,West,270,6.0,7.0,71,0.00,,,-99.99,WeatherLink 5.7,2013-11-30 08:25:00,
2013-11-30 01:30:00,41.0,32.7,30.15,West,270,6.0,8.0,72,0.00,,,-99.99,WeatherLink 5.7,2013-11-30 08:30:00,
2013-11-30 01:35:00,41.3,32.6,30.15,West,270,5.0,7.0,71,0.00,,,-99.99,WeatherLink 5.7,2013-11-30 08:35:00,
2013-11-30 01:40:00,41.6,32.9,30.14,West,270,4.0,6.0,71,0.00,,,-99.99,WeatherLink 5.7,2013-11-30 08:40:00,
2013-11-30 01:45:00,41.7,33.0,30.14,West,270,5.0,7.0,71,0.00,,,-99.99,WeatherLink 5.7,2013-11-30 08:45:00,
2013-11-30 01:50:00,42.1,33.0,30.14,West,270,5.0,7.0,70,0.00,,,-99.99,WeatherLink 5.7,2013-11-30 08:50:00,
2013-11-30 01:55:00,42.6,33.1,30.14,West,270,6.0,7.0,69,0.00,,,-99.99,WeatherLink 5.7,2013-11-30 08:55:00,
2013-11-30 02:00:00,42.9,33.1,30.14,West,270,7.0,8.0,68,0.00,,,-99.99,WeatherLink 5.7,2013-11-30 09:00:00,
2013-11-30 02:05:00,42.8,33.0,30.14,West,270,6.0,7.0,68,0.00,,,-99.99,WeatherLink 5.7,2013-11-30 09:05:00,
2013-11-30 02:10:00,42.5,32.7,30.14,West,270,5.0,6.0,68,0.00,,,-99.99,WeatherLink 5.7,2013-11-30 09:10:00,
2013-11-30 02:15:00,42.0,32.6,30.14,West,270,4.0,5.0,69,0.00,,,-99.99,WeatherLink 5.7,2013-11-30 09:15:00,
2013-11-30 02:20:00,41.6,32.5,30.14,West,270,5.0,6.0,70,0.00,,,-99.99,WeatherLink 5.7,2013-11-30 09:20:00,
2013-11-30 02:25:00,41.6,32.9,30.14,West,270,6.0,7.0,71,0.00,,,-99.99,WeatherLink 5.7,2013-11-30 09:25:00,
2013-11-30 02:30:00,41.7,33.0,30.14,West,270,6.0,6.0,71,0.00,,,-99.99,WeatherLink 5.7,2013-11-30 09:30:00,
2013-11-30 02:35:00,41.6,32.9,30.14,West,270,6.0,6.0,71,0.00,,,-99.99,WeatherLink 5.7,2013-11-30 09:35:00,
2013-11-30 02:40:00,41.6,33.2,30.14,West,270,6.0,7.0,72,0.00,,,-99.99,WeatherLink 5.7,2013-11-30 09:40:00,
2013-11-30 02:45:00,41.8,33.4,30.14,West,270,6.0,7.0,72,0.00,,,-99.99,WeatherLink 5.7,2013-11-30 09:45:00,
2013-11-30 02:50:00,42.1,33.4,30.14,West,270,5.0,6.0,71,0.00,,,-99.99,WeatherLink 5.7,2013-11-30 09:50:00,
2013-11-30 02:55:00,42.5,33.8,30.14,West,270,6.0,7.0,71,0.00,,,-99.99,WeatherLink 5.7,2013-11-30 09:55:00,
2013-11-30 03:00:00,42.6,33.9,30.14,West,270,5.0,7.0,71,0.00,,,-99.99,WeatherLink 5.7,2013-11-30 10:00:00,
2013-11-30 03:05:00,42.6,33.9,30.14,West,270,5.0,6.0,71,0.00,,,-99.99,WeatherLink 5.7,2013-11-30 10:05:00,
2013-11-30 03:10:00,42.7,33.9,30.14,West,270,4.0,6.0,71,0.00,,,-99.99,WeatherLink 5.7,2013-11-30 10:10:00,
2013-11-30 03:15:00,42.8,33.7,30.13,West,270,5.0,6.0,70,0.00,,,-99.99,WeatherLink 5.7,2013-11-30 10:15:00,
2013-11-30 03:20:00,42.7,33.6,30.13,West,270,4.0,5.0,70,0.00,,,-99.99,WeatherLink 5.7,2013-11-30 10:20:00,
2013-11-30 03:25:00,42.6,33.9,30.13,West,270,4.0,5.0,71,0.00,,,-99.99,WeatherLink 5.7,2013-11-30 10:25:00,
2013-11-30 03:30:00,42.6,33.5,30.13,West,270,3.0,5.0,70,0.00,,,-99.99,WeatherLink 5.7,2013-11-30 10:30:00,
2013-11-30 03:35:00,42.6,33.9,30.13,West,270,4.0,5.0,71,0.00,,,-99.99,WeatherLink 5.7,2013-11-30 10:35:00,
2013-11-30 03:40:00,42.7,33.9,30.13,West,270,4.0,5.0,71,0.00,,,-99.99,WeatherLink 5.7,2013-11-30 10:40:00,
2013-11-30 03:45:00,42.7,33.9,30.12,West,270,4.0,5.0,71,0.00,,,-99.99,WeatherLink 5.7,2013-11-30 10:45:00,
2013-11-30 03:50:00,42.6,33.9,30.13,West,270,3.0,4.0,71,0.00,,,-99.99,WeatherLink 5.7,2013-11-30 10:50:00,
2013-11-30 03:55:00,42.7,33.9,30.13,West,270,4.0,5.0,71,0.00,,,-99.99,WeatherLink 5.7,2013-11-30 10:55:00,
2013-11-30 04:00:00,42.8,34.0,30.13,West,270,2.0,4.0,71,0.00,,,-99.99,WeatherLink 5.7,2013-11-30 11:00:00,
2013-11-30 04:05:00,42.9,33.8,30.16,West,270,1.0,2.0,70,0.00,,,-99.99,WeatherLink 5.7,2013-11-30 11:05:00,
2013-11-30 04:10:00,43.0,33.9,30.16,North,-999,0.0,0.0,70,0.00,,,-99.99,WeatherLink 5.7,2013-11-30 11:10:00,
2013-11-30 04:15:00,43.0,33.9,30.16,West,270,0.0,1.0,70,0.00,,,-99.99,WeatherLink 5.7,2013-11-30 11:15:00,
2013-11-30 04:20:00,42.8,33.7,30.16,West,270,1.0,2.0,70,0.00,,,-99.99,WeatherLink 5.7,2013-11-30 11:20:00,
2013-11-30 04:25:00,42.7,33.2,30.17,West,270,1.0,2.0,69,0.00,,,-99.99,WeatherLink 5.7,2013-11-30 11:25:00,
2013-11-30 04:30:00,42.3,33.2,30.17,West,270,1.0,2.0,70,0.00,,,-99.99,WeatherLink 5.7,2013-11-30 11:30:00,
2013-11-30 04:35:00,41.9,32.8,30.17,West,270,1.0,2.0,70,0.00,,,-99.99,WeatherLink 5.7,2013-11-30 11:35:00,
2013-11-30 04:40:00,41.7,33.0,30.17,West,270,1.0,3.0,71,0.00,,,-99.99,WeatherLink 5.7,2013-11-30 11:40:00,
2013-11-30 04:45:00,41.6,32.9,30.17,West,270,3.0,4.0,71,0.00,,,-99.99,WeatherLink 5.7,2013-11-30 11:45:00,
2013-11-30 04:50:00,41.5,33.1,30.17,West,270,1.0,4.0,72,0.00,,,-99.99,WeatherLink 5.7,2013-11-30 11:50:00,
2013-11-30 04:55:00,41.1,32.8,30.17,West,270,1.0,3.0,72,0.00,,,-99.99,WeatherLink 5.7,2013-11-30 11:55:00,
2013-11-30 05:00:00,40.4,32.4,30.17,North,-999,0.0,0.0,73,0.00,,,-99.99,WeatherLink 5.7,2013-11-30 12:00:00,
2013-11-30 05:05:00,39.9,32.3,30.21,North,-999,0.0,0.0,74,0.00,,,-99.99,WeatherLink 5.7,2013-11-30 12:05:00,
2013-11-30 05:10:00,39.7,32.4,30.21,North,-999,0.0,0.0,75,0.00,,,-99.99,WeatherLink 5.7,2013-11-30 12:10:00,
2013-11-30 05:15:00,39.6,32.7,30.20,North,-999,0.0,0.0,76,0.00,,,-99.99,WeatherLink 5.7,2013-11-30 12:15:00,
2013-11-30 05:20:00,39.6,32.7,30.20,North,-999,0.0,0.0,76,0.00,,,-99.99,WeatherLink 5.7,2013-11-30 12:20:00,
2013-11-30 05:25:00,39.4,32.5,30.22,North,-999,0.0,0.0,76,0.00,,,-99.99,WeatherLink 5.7,2013-11-30 12:25:00,
2013-11-30 05:30:00,39.3,32.7,30.21,North,-999,0.0,0.0,77,0.00,,,-99.99,WeatherLink 5.7,2013-11-30 12:30:00,
2013-11-30 05:35:00,39.3,32.7,30.21,North,-999,0.0,0.0,77,0.00,,,-99.99,WeatherLink 5.7,2013-11-30 12:35:00,
2013-11-30 05:40:00,39.3,32.7,30.21,North,-999,0.0,0.0,77,0.00,,,-99.99,WeatherLink 5.7,2013-11-30 12:40:00,
2013-11-30 05:45:00,39.4,32.8,30.21,North,-999,0.0,0.0,77,0.00,,,-99.99,WeatherLink 5.7,2013-11-30 12:45:00,
2013-11-30 05:50:00,39.4,32.8,30.23,North,-999,0.0,0.0,77,0.00,,,-99.99,WeatherLink 5.7,2013-11-30 12:50:00,
2013-11-30 05:55:00,39.3,32.7,30.22,North,-999,0.0,0.0,77,0.00,,,-99.99,WeatherLink 5.7,2013-11-30 12:55:00,
2013-11-30 06:00:00,39.2,32.6,30.22,North,-999,0.0,0.0,77,0.00,,,-99.99,WeatherLink 5.7,2013-11-30 13:00:00,
2013-11-30 06:05:00,38.5,31.9,30.24,West,270,2.0,5.0,77,0.00,,,-99.99,WeatherLink 5.7,2013-11-30 13:05:00,
2013-11-30 06:10:00,38.1,31.5,30.23,West,270,1.0,5.0,77,0.00,,,-99.99,WeatherLink 5.7,2013-11-30 13:10:00,
2013-11-30 06:15:00,38.6,32.6,30.23,West,270,6.0,10.0,79,0.00,,,-99.99,WeatherLink 5.7,2013-11-30 13:15:00,
2013-11-30 06:20:00,39.7,33.4,30.22,West,270,7.0,10.0,78,0.00,,,-99.99,WeatherLink 5.7,2013-11-30 13:20:00,
2013-11-30 06:25:00,40.5,33.9,30.22,West,270,5.0,8.0,77,0.00,,,-99.99,WeatherLink 5.7,2013-11-30 13:25:00,
2013-11-30 06:30:00,40.7,33.4,30.23,West,270,2.0,5.0,75,0.00,,,-99.99,WeatherLink 5.7,2013-11-30 13:30:00,
2013-11-30 06:35:00,40.7,33.4,30.22,West,270,4.0,7.0,75,0.00,,,-99.99,WeatherLink 5.7,2013-11-30 13:35:00,
2013-11-30 06:40:00,40.7,33.4,30.22,West,270,5.0,6.0,75,0.00,,,-99.99,WeatherLink 5.7,2013-11-30 13:40:00,
2013-11-30 06:45:00,40.2,32.9,30.23,West,270,4.0,6.0,75,0.00,,,-99.99,WeatherLink 5.7,2013-11-30 13:45:00,
2013-11-30 06:50:00,39.9,32.9,30.23,West,270,1.0,3.0,76,0.00,,,-99.99,WeatherLink 5.7,2013-11-30 13:50:00,
2013-11-30 06:55:00,39.7,32.8,30.23,West,270,3.0,6.0,76,0.00,,,-99.99,WeatherLink 5.7,2013-11-30 13:55:00,
2013-11-30 07:00:00,40.0,33.4,30.22,West,270,6.0,7.0,77,0.00,,,-99.99,WeatherLink 5.7,2013-11-30 14:00:00,
2013-11-30 07:05:00,40.8,33.8,30.24,West,270,6.0,7.0,76,0.00,,,-99.99,WeatherLink 5.7,2013-11-30 14:05:00,
2013-11-30 07:10:00,41.6,34.3,30.23,West,270,4.0,6.0,75,0.00,,,-99.99,WeatherLink 5.7,2013-11-30 14:10:00,
2013-11-30 07:15:00,42.5,34.5,30.23,West,270,4.0,5.0,73,0.00,,,-99.99,WeatherLink 5.7,2013-11-30 14:15:00,
2013-11-30 07:20:00,42.8,34.4,30.24,West,270,1.0,4.0,72,0.00,,,-99.99,WeatherLink 5.7,2013-11-30 14:20:00,
2013-11-30 07:25:00,41.9,33.5,30.24,West,270,5.0,6.0,72,0.00,,,-99.99,WeatherLink 5.7,2013-11-30 14:25:00,
2013-11-30 07:30:00,41.4,33.4,30.24,West,270,3.0,5.0,73,0.00,,,-99.99,WeatherLink 5.7,2013-11-30 14:30:00,
2013-11-30 07:35:00,41.4,33.7,30.25,West,270,4.0,5.0,74,0.00,,,-99.99,WeatherLink 5.7,2013-11-30 14:35:00,
2013-11-30 07:40:00,41.7,34.0,30.23,West,270,4.0,6.0,74,0.00,,,-99.99,WeatherLink 5.7,2013-11-30 14:40:00,
2013-11-30 07:45:00,42.3,34.6,30.23,West,270,3.0,5.0,74,0.00,,,-99.99,WeatherLink 5.7,2013-11-30 14:45:00,
2013-11-30 07:50:00,43.3,35.2,30.24,West,270,1.0,5.0,73,0.00,,,-99.99,WeatherLink 5.7,2013-11-30 14:50:00,
2013-11-30 07:55:00,44.8,36.0,30.23,West,270,1.0,4.0,71,0.00,,,-99.99,WeatherLink 5.7,2013-11-30 14:55:00,
2013-11-30 08:00:00,46.4,36.4,30.22,West,270,2.0,4.0,68,0.00,,,-99.99,WeatherLink 5.7,2013-11-30 15:00:00,
2013-11-30 08:05:00,47.8,36.2,30.22,West,270,2.0,6.0,64,0.00,,,-99.99,WeatherLink 5.7,2013-11-30 15:05:00,
2013-11-30 08:10:00,48.7,35.8,30.22,West,270,6.0,8.0,61,0.00,,,-99.99,WeatherLink 5.7,2013-11-30 15:10:00,
2013-11-30 08:15:00,48.3,35.5,30.23,West,270,5.0,8.0,61,0.00,,,-99.99,WeatherLink 5.7,2013-11-30 15:15:00,
2013-11-30 08:20:00,46.8,34.5,30.23,West,270,8.0,12.0,62,0.00,,,-99.99,WeatherLink 5.7,2013-11-30 15:20:00,
2013-11-30 08:25:00,45.8,34.3,30.24,WNW,292,9.0,14.0,64,0.00,,,-99.99,WeatherLink 5.7,2013-11-30 15:25:00,
2013-11-30 08:30:00,46.1,34.6,30.24,WNW,292,9.0,13.0,64,0.00,,,-99.99,WeatherLink 5.7,2013-11-30 15:30:00,
2013-11-30 08:35:00,47.2,35.2,30.24,WNW,292,8.0,11.0,63,0.00,,,-99.99,WeatherLink 5.7,2013-11-30 15:35:00,
2013-11-30 08:40:00,48.1,35.3,30.23,WNW,292,8.0,12.0,61,0.00,,,-99.99,WeatherLink 5.7,2013-11-30 15:40:00,
2013-11-30 08:45:00,48.8,35.5,30.22,WNW,292,7.0,10.0,60,0.00,,,-99.99,WeatherLink 5.7,2013-11-30 15:45:00,
2013-11-30 08:50:00,49.8,35.6,30.22,WNW,292,8.0,12.0,58,0.00,,,-99.99,WeatherLink 5.7,2013-11-30 15:50:00,
2013-11-30 08:55:00,50.9,35.7,30.21,WNW,292,7.0,11.0,56,0.00,,,-99.99,WeatherLink 5.7,2013-11-30 15:55:00,
2013-11-30 09:00:00,52.0,35.9,30.21,WNW,292,6.0,8.0,54,0.00,,,-99.99,WeatherLink 5.7,2013-11-30 16:00:00,
2013-11-30 09:05:00,53.0,35.8,30.21,WNW,292,7.0,10.0,52,0.00,,,-99.99,WeatherLink 5.7,2013-11-30 16:05:00,
2013-11-30 09:10:00,53.7,36.0,30.19,WNW,292,6.0,9.0,51,0.00,,,-99.99,WeatherLink 5.7,2013-11-30 16:10:00,
2013-11-30 09:15:00,54.4,36.1,30.20,WNW,292,6.0,9.0,50,0.00,,,-99.99,WeatherLink 5.7,2013-11-30 16:15:00,
2013-11-30 09:20:00,54.9,35.6,30.20,WNW,292,6.0,9.0,48,0.00,,,-99.99,WeatherLink 5.7,2013-11-30 16:20:00,
2013-11-30 09:25:00,55.1,35.2,30.20,WNW,292,6.0,8.0,47,0.00,,,-99.99,WeatherLink 5.7,2013-11-30 16:25:00,
2013-11-30 09:30:00,55.7,36.3,30.19,WNW,292,4.0,8.0,48,0.00,,,-99.99,WeatherLink 5.7,2013-11-30 16:30:00,
2013-11-30 09:35:00,55.9,35.9,30.19,WNW,292,5.0,7.0,47,0.00,,,-99.99,WeatherLink 5.7,2013-11-30 16:35:00,
2013-11-30 09:40:00,56.0,36.0,30.19,WNW,292,5.0,8.0,47,0.00,,,-99.99,WeatherLink 5.7,2013-11-30 16:40:00,
2013-11-30 09:45:00,56.0,36.0,30.19,WNW,292,6.0,9.0,47,0.00,,,-99.99,WeatherLink 5.7,2013-11-30 16:45:00,
2013-11-30 09:50:00,55.7,35.8,30.19,WNW,292,6.0,9.0,47,0.00,,,-99.99,WeatherLink 5.7,2013-11-30 16:50:00,
2013-11-30 09:55:00,55.2,35.8,30.20,WNW,292,7.0,10.0,48,0.00,,,-99.99,WeatherLink 5.7,2013-11-30 16:55:00,
2013-11-30 10:00:00,55.3,36.5,30.20,WNW,292,6.0,8.0,49,0.00,,,-99.99,WeatherLink 5.7,2013-11-30 17:00:00,
2013-11-30 10:05:00,55.4,36.0,30.18,WNW,292,7.0,10.0,48,0.00,,,-99.99,WeatherLink 5.7,2013-11-30 17:05:00,
2013-11-30 10:10:00,55.3,35.9,30.18,WNW,292,8.0,11.0,48,0.00,,,-99.99,WeatherLink 5.7,2013-11-30 17:10:00,
2013-11-30 10:15:00,55.0,35.7,30.18,WNW,292,9.0,12.0,48,0.00,,,-99.99,WeatherLink 5.7,2013-11-30 17:15:00,
2013-11-30 10:20:00,54.9,35.6,30.17,WNW,292,9.0,13.0,48,0.00,,,-99.99,WeatherLink 5.7,2013-11-30 17:20:00,
2013-11-30 10:25:00,55.3,35.9,30.17,WNW,292,8.0,10.0,48,0.00,,,-99.99,WeatherLink 5.7,2013-11-30 17:25:00,
2013-11-30 10:30:00,55.3,35.4,30.17,WNW,292,9.0,11.0,47,0.00,,,-99.99,WeatherLink 5.7,2013-11-30 17:30:00,
2013-11-30 10:35:00,55.6,35.7,30.17,WNW,292,9.0,13.0,47,0.00,,,-99.99,WeatherLink 5.7,2013-11-30 17:35:00,
2013-11-30 10:40:00,55.5,35.0,30.17,WNW,292,9.0,13.0,46,0.00,,,-99.99,WeatherLink 5.7,2013-11-30 17:40:00,
2013-11-30 10:45:00,55.7,35.8,30.16,WNW,292,8.0,13.0,47,0.00,,,-99.99,WeatherLink 5.7,2013-11-30 17:45:00,
2013-11-30 10:50:00,55.1,35.2,30.16,WNW,292,11.0,14.0,47,0.00,,,-99.99,WeatherLink 5.7,2013-11-30 17:50:00,
2013-11-30 10:55:00,55.3,35.4,30.16,West,270,10.0,15.0,47,0.00,,,-99.99,WeatherLink 5.7,2013-11-30 17:55:00,
2013-11-30 11:00:00,55.6,35.7,30.16,West,270,8.0,11.0,47,0.00,,,-99.99,WeatherLink 5.7,2013-11-30 18:00:00,
2013-11-30 11:05:00,55.2,35.8,30.18,West,270,10.0,14.0,48,0.00,,,-99.99,WeatherLink 5.7,2013-11-30 18:05:00,
2013-11-30 11:10:00,55.2,35.8,30.17,West,270,9.0,12.0,48,0.00,,,-99.99,WeatherLink 5.7,2013-11-30 18:10:00,
2013-11-30 11:15:00,54.7,35.9,30.18,West,270,9.0,13.0,49,0.00,,,-99.99,WeatherLink 5.7,2013-11-30 18:15:00,
2013-11-30 11:20:00,54.5,35.7,30.18,West,270,9.0,12.0,49,0.00,,,-99.99,WeatherLink 5.7,2013-11-30 18:20:00,
2013-11-30 11:25:00,54.5,35.7,30.18,West,270,8.0,11.0,49,0.00,,,-99.99,WeatherLink 5.7,2013-11-30 18:25:00,
2013-11-30 11:30:00,54.9,36.1,30.17,West,270,8.0,10.0,49,0.00,,,-99.99,WeatherLink 5.7,2013-11-30 18:30:00,
2013-11-30 11:35:00,55.1,35.7,30.16,West,270,7.0,10.0,48,0.00,,,-99.99,WeatherLink 5.7,2013-11-30 18:35:00,
2013-11-30 11:40:00,55.4,36.0,30.17,West,270,8.0,11.0,48,0.00,,,-99.99,WeatherLink 5.7,2013-11-30 18:40:00,
2013-11-30 11:45:00,55.7,36.3,30.16,West,270,8.0,11.0,48,0.00,,,-99.99,WeatherLink 5.7,2013-11-30 18:45:00,
2013-11-30 11:50:00,56.1,36.7,30.15,West,270,8.0,10.0,48,0.00,,,-99.99,WeatherLink 5.7,2013-11-30 18:50:00,
2013-11-30 11:55:00,57.0,37.0,30.15,West,270,9.0,11.0,47,0.00,,,-99.99,WeatherLink 5.7,2013-11-30 18:55:00,
2013-11-30 12:00:00,56.7,36.1,30.15,West,270,9.0,11.0,46,0.00,,,-99.99,WeatherLink 5.7,2013-11-30 19:00:00,
2013-11-30 12:05:00,57.3,36.1,30.16,West,270,7.0,10.0,45,0.00,,,-99.99,WeatherLink 5.7,2013-11-30 19:05:00,
2013-11-30 12:10:00,57.6,36.4,30.15,West,270,9.0,12.0,45,0.00,,,-99.99,WeatherLink 5.7,2013-11-30 19:10:00,
2013-11-30 12:15:00,57.4,36.8,30.14,West,270,8.0,11.0,46,0.00,,,-99.99,WeatherLink 5.7,2013-11-30 19:15:00,
2013-11-30 12:20:00,57.2,36.0,30.16,West,270,9.0,11.0,45,0.00,,,-99.99,WeatherLink 5.7,2013-11-30 19:20:00,
2013-11-30 12:25:00,57.0,36.4,30.16,West,270,8.0,10.0,46,0.00,,,-99.99,WeatherLink 5.7,2013-11-30 19:25:00,
2013-11-30 12:30:00,57.2,36.6,30.15,West,270,8.0,10.0,46,0.00,,,-99.99,WeatherLink 5.7,2013-11-30 19:30:00,
2013-11-30 12:35:00,57.5,36.9,30.15,West,270,8.0,10.0,46,0.00,,,-99.99,WeatherLink 5.7,2013-11-30 19:35:00,
2013-11-30 12:40:00,57.9,36.7,30.14,West,270,7.0,11.0,45,0.00,,,-99.99,WeatherLink 5.7,2013-11-30 19:40:00,
2013-11-30 12:45:00,58.4,36.6,30.14,West,270,6.0,10.0,44,0.00,,,-99.99,WeatherLink 5.7,2013-11-30 19:45:00,
2013-11-30 12:50:00,58.6,36.7,30.13,West,270,5.0,8.0,44,0.00,,,-99.99,WeatherLink 5.7,2013-11-30 19:50:00,
2013-11-30 12:55:00,58.8,36.3,30.13,West,270,7.0,9.0,43,0.00,,,-99.99,WeatherLink 5.7,2013-11-30 19:55:00,
2013-11-30 13:00:00,59.0,36.5,30.13,West,270,5.0,8.0,43,0.00,,,-99.99,WeatherLink 5.7,2013-11-30 20:00:00,
2013-11-30 13:05:00,59.1,36.6,30.11,West,270,6.0,9.0,43,0.00,,,-99.99,WeatherLink 5.7,2013-11-30 20:05:00,
2013-11-30 13:10:00,59.2,36.7,30.11,West,270,6.0,9.0,43,0.00,,,-99.99,WeatherLink 5.7,2013-11-30 20:10:00,
2013-11-30 13:15:00,59.5,37.0,30.11,West,270,6.0,11.0,43,0.00,,,-99.99,WeatherLink 5.7,2013-11-30 20:15:00,
2013-11-30 13:20:00,59.5,37.0,30.11,West,270,6.0,11.0,43,0.00,,,-99.99,WeatherLink 5.7,2013-11-30 20:20:00,
2013-11-30 13:25:00,59.6,36.5,30.11,West,270,5.0,8.0,42,0.00,,,-99.99,WeatherLink 5.7,2013-11-30 20:25:00,
2013-11-30 13:30:00,59.9,36.7,30.10,West,270,5.0,7.0,42,0.00,,,-99.99,WeatherLink 5.7,2013-11-30 20:30:00,
2013-11-30 13:35:00,60.0,36.8,30.10,West,270,3.0,7.0,42,0.00,,,-99.99,WeatherLink 5.7,2013-11-30 20:35:00,
2013-11-30 13:40:00,60.0,36.8,30.09,West,270,6.0,8.0,42,0.00,,,-99.99,WeatherLink 5.7,2013-11-30 20:40:00,
2013-11-30 13:45:00,60.7,36.8,30.08,West,270,6.0,8.0,41,0.00,,,-99.99,WeatherLink 5.7,2013-11-30 20:45:00,
2013-11-30 13:50:00,61.0,37.1,30.08,West,270,6.0,8.0,41,0.00,,,-99.99,WeatherLink 5.7,2013-11-30 20:50:00,
2013-11-30 13:55:00,60.9,37.0,30.08,West,270,2.0,7.0,41,0.00,,,-99.99,WeatherLink 5.7,2013-11-30 20:55:00,
2013-11-30 14:00:00,60.9,37.0,30.08,West,270,2.0,5.0,41,0.00,,,-99.99,WeatherLink 5.7,2013-11-30 21:00:00,
2013-11-30 14:05:00,60.6,36.8,30.07,West,270,3.0,7.0,41,0.00,,,-99.99,WeatherLink 5.7,2013-11-30 21:05:00,
2013-11-30 14:10:00,60.4,36.6,30.07,West,270,4.0,8.0,41,0.00,,,-99.99,WeatherLink 5.7,2013-11-30 21:10:00,
2013-11-30 14:15:00,60.4,36.6,30.08,West,270,3.0,8.0,41,0.00,,,-99.99,WeatherLink 5.7,2013-11-30 21:15:00,
2013-11-30 14:20:00,60.5,36.7,30.08,West,270,4.0,7.0,41,0.00,,,-99.99,WeatherLink 5.7,2013-11-30 21:20:00,
2013-11-30 14:25:00,60.5,36.7,30.07,West,270,2.0,6.0,41,0.00,,,-99.99,WeatherLink 5.7,2013-11-30 21:25:00,
2013-11-30 14:30:00,60.5,36.7,30.07,West,270,3.0,6.0,41,0.00,,,-99.99,WeatherLink 5.7,2013-11-30 21:30:00,
2013-11-30 14:35:00,60.5,36.7,30.07,West,270,5.0,7.0,41,0.00,,,-99.99,WeatherLink 5.7,2013-11-30 21:35:00,
2013-11-30 14:40:00,60.8,36.9,30.07,West,270,3.0,6.0,41,0.00,,,-99.99,WeatherLink 5.7,2013-11-30 21:40:00,
2013-11-30 14:45:00,61.2,37.3,30.07,West,270,4.0,7.0,41,0.00,,,-99.99,WeatherLink 5.7,2013-11-30 21:45:00,
2013-11-30 14:50:00,61.1,36.6,30.06,West,270,4.0,6.0,40,0.00,,,-99.99,WeatherLink 5.7,2013-11-30 21:50:00,
2013-11-30 14:55:00,60.9,36.4,30.06,West,270,2.0,6.0,40,0.00,,,-99.99,WeatherLink 5.7,2013-11-30 21:55:00,
2013-11-30 15:00:00,60.9,37.0,30.06,West,270,3.0,6.0,41,0.00,,,-99.99,WeatherLink 5.7,2013-11-30 22:00:00,
2013-11-30 15:05:00,61.0,37.1,30.06,West,270,4.0,6.0,41,0.00,,,-99.99,WeatherLink 5.7,2013-11-30 22:05:00,
2013-11-30 15:10:00,60.9,37.0,30.06,West,270,2.0,6.0,41,0.00,,,-99.99,WeatherLink 5.7,2013-11-30 22:10:00,
2013-11-30 15:15:00,60.6,36.8,30.06,West,270,1.0,2.0,41,0.00,,,-99.99,WeatherLink 5.7,2013-11-30 22:15:00,
2013-11-30 15:20:00,60.5,36.7,30.06,West,270,3.0,5.0,41,0.00,,,-99.99,WeatherLink 5.7,2013-11-30 22:20:00,
2013-11-30 15:25:00,60.4,37.2,30.07,West,270,4.0,6.0,42,0.00,,,-99.99,WeatherLink 5.7,2013-11-30 22:25:00,
2013-11-30 15:30:00,60.5,37.3,30.06,West,270,4.0,6.0,42,0.00,,,-99.99,WeatherLink 5.7,2013-11-30 22:30:00,
2013-11-30 15:35:00,60.6,36.8,30.06,West,270,4.0,6.0,41,0.00,,,-99.99,WeatherLink 5.7,2013-11-30 22:35:00,
2013-11-30 15:40:00,60.3,36.5,30.07,West,270,3.0,6.0,41,0.00,,,-99.99,WeatherLink 5.7,2013-11-30 22:40:00,
2013-11-30 15:45:00,60.1,36.9,30.07,West,270,4.0,6.0,42,0.00,,,-99.99,WeatherLink 5.7,2013-11-30 22:45:00,
2013-11-30 15:50:00,60.0,36.8,30.07,West,270,4.0,6.0,42,0.00,,,-99.99,WeatherLink 5.7,2013-11-30 22:50:00,
2013-11-30 15:55:00,60.1,36.9,30.08,West,270,4.0,6.0,42,0.00,,,-99.99,WeatherLink 5.7,2013-11-30 22:55:00,
2013-11-30 16:00:00,60.0,36.8,30.07,West,270,4.0,7.0,42,0.00,,,-99.99,WeatherLink 5.7,2013-11-30 23:00:00,
2013-11-30 16:05:00,59.7,37.2,30.08,West,270,3.0,6.0,43,0.00,,,-99.99,WeatherLink 5.7,2013-11-30 23:05:00,
2013-11-30 16:10:00,59.1,36.6,30.09,West,270,4.0,5.0,43,0.00,,,-99.99,WeatherLink 5.7,2013-11-30 23:10:00,
2013-11-30 16:15:00,59.0,37.1,30.09,West,270,3.0,4.0,44,0.00,,,-99.99,WeatherLink 5.7,2013-11-30 23:15:00,
2013-11-30 16:20:00,58.5,36.6,30.09,West,270,3.0,5.0,44,0.00,,,-99.99,WeatherLink 5.7,2013-11-30 23:20:00,
2013-11-30 16:25:00,57.9,36.7,30.09,West,270,3.0,5.0,45,0.00,,,-99.99,WeatherLink 5.7,2013-11-30 23:25:00,
2013-11-30 16:30:00,57.3,36.7,30.10,West,270,4.0,5.0,46,0.00,,,-99.99,WeatherLink 5.7,2013-11-30 23:30:00,
2013-11-30 16:35:00,56.8,36.8,30.10,West,270,3.0,4.0,47,0.00,,,-99.99,WeatherLink 5.7,2013-11-30 23:35:00,
2013-11-30 16:40:00,56.5,37.0,30.10,West,270,2.0,4.0,48,0.00,,,-99.99,WeatherLink 5.7,2013-11-30 23:40:00,
2013-11-30 16:45:00,56.1,37.2,30.10,West,270,3.0,4.0,49,0.00,,,-99.99,WeatherLink 5.7,2013-11-30 23:45:00,
2013-11-30 16:50:00,55.8,36.9,30.10,West,270,2.0,4.0,49,0.00,,,-99.99,WeatherLink 5.7,2013-11-30 23:50:00,
2013-11-30 16:55:00,55.5,37.1,30.11,West,270,2.0,4.0,50,0.00,,,-99.99,WeatherLink 5.7,2013-11-30 23:55:00,
2013-11-30 17:00:00,55.1,37.3,30.12,West,270,2.0,4.0,51,0.00,,,-99.99,WeatherLink 5.7,2013-12-01 00:00:00,
2013-11-30 17:05:00,54.7,36.9,30.13,West,270,2.0,4.0,51,0.00,,,-99.99,WeatherLink 5.7,2013-12-01 00:05:00,
2013-11-30 17:10:00,54.4,37.1,30.13,West,270,3.0,4.0,52,0.00,,,-99.99,WeatherLink 5.7,2013-12-01 00:10:00,
2013-11-30 17:15:00,54.0,37.2,30.14,West,270,2.0,2.0,53,0.00,,,-99.99,WeatherLink 5.7,2013-12-01 00:15:00,
2013-11-30 17:20:00,53.5,37.3,30.14,West,270,3.0,5.0,54,0.00,,,-99.99,WeatherLink 5.7,2013-12-01 00:20:00,
2013-11-30 17:25:00,53.2,37.4,30.13,West,270,4.0,5.0,55,0.00,,,-99.99,WeatherLink 5.7,2013-12-01 00:25:00,
2013-11-30 17:30:00,53.0,37.3,30.14,West,270,4.0,5.0,55,0.00,,,-99.99,WeatherLink 5.7,2013-12-01 00:30:00,
2013-11-30 17:35:00,52.9,37.2,30.14,West,270,4.0,5.0,55,0.00,,,-99.99,WeatherLink 5.7,2013-12-01 00:35:00,
2013-11-30 17:40:00,52.9,37.2,30.14,West,270,4.0,5.0,55,0.00,,,-99.99,WeatherLink 5.7,2013-12-01 00:40:00,
2013-11-30 17:45:00,52.9,37.2,30.14,West,270,5.0,6.0,55,0.00,,,-99.99,WeatherLink 5.7,2013-12-01 00:45:00,
2013-11-30 17:50:00,52.8,37.5,30.15,West,270,5.0,6.0,56,0.00,,,-99.99,WeatherLink 5.7,2013-12-01 00:50:00,
2013-11-30 17:55:00,52.8,37.5,30.15,West,270,5.0,6.0,56,0.00,,,-99.99,WeatherLink 5.7,2013-12-01 00:55:00,
2013-11-30 18:00:00,52.7,37.4,30.15,West,270,5.0,6.0,56,0.00,,,-99.99,WeatherLink 5.7,2013-12-01 01:00:00,
2013-11-30 18:05:00,52.8,37.5,30.15,West,270,4.0,5.0,56,0.00,,,-99.99,WeatherLink 5.7,2013-12-01 01:05:00,
2013-11-30 18:10:00,52.8,37.1,30.15,West,270,4.0,6.0,55,0.00,,,-99.99,WeatherLink 5.7,2013-12-01 01:10:00,
2013-11-30 18:15:00,52.9,37.2,30.15,West,270,5.0,6.0,55,0.00,,,-99.99,WeatherLink 5.7,2013-12-01 01:15:00,
2013-11-30 18:20:00,53.0,37.3,30.15,West,270,4.0,6.0,55,0.00,,,-99.99,WeatherLink 5.7,2013-12-01 01:20:00,
2013-11-30 18:25:00,53.2,37.4,30.15,West,270,5.0,6.0,55,0.00,,,-99.99,WeatherLink 5.7,2013-12-01 01:25:00,
2013-11-30 18:30:00,53.3,37.5,30.15,West,270,5.0,6.0,55,0.00,,,-99.99,WeatherLink 5.7,2013-12-01 01:30:00,
2013-11-30 18:35:00,53.3,37.5,30.15,West,270,4.0,6.0,55,0.00,,,-99.99,WeatherLink 5.7,2013-12-01 01:35:00,
2013-11-30 18:40:00,53.3,38.0,30.15,West,270,5.0,6.0,56,0.00,,,-99.99,WeatherLink 5.7,2013-12-01 01:40:00,
2013-11-30 18:45:00,53.1,38.3,30.15,West,270,3.0,5.0,57,0.00,,,-99.99,WeatherLink 5.7,2013-12-01 01:45:00,
2013-11-30 18:50:00,52.9,38.1,30.16,West,270,3.0,4.0,57,0.00,,,-99.99,WeatherLink 5.7,2013-12-01 01:50:00,
2013-11-30 18:55:00,52.8,38.0,30.15,West,270,4.0,6.0,57,0.00,,,-99.99,WeatherLink 5.7,2013-12-01 01:55:00,
2013-11-30 19:00:00,52.8,38.0,30.15,West,270,5.0,6.0,57,0.00,,,-99.99,WeatherLink 5.7,2013-12-01 02:00:00,
2013-11-30 19:05:00,52.8,38.0,30.12,West,270,4.0,5.0,57,0.00,,,-99.99,WeatherLink 5.7,2013-12-01 02:05:00,
2013-11-30 19:10:00,52.7,37.9,30.13,West,270,3.0,5.0,57,0.00,,,-99.99,WeatherLink 5.7,2013-12-01 02:10:00,
2013-11-30 19:15:00,52.6,38.2,30.13,West,270,3.0,5.0,58,0.00,,,-99.99,WeatherLink 5.7,2013-12-01 02:15:00,
2013-11-30 19:20:00,52.3,38.0,30.13,West,270,3.0,5.0,58,0.00,,,-99.99,WeatherLink 5.7,2013-12-01 02:20:00,
2013-11-30 19:25:00,52.1,37.8,30.13,West,270,4.0,6.0,58,0.00,,,-99.99,WeatherLink 5.7,2013-12-01 02:25:00,
2013-11-30 19:30:00,51.7,37.8,30.13,West,270,5.0,6.0,59,0.00,,,-99.99,WeatherLink 5.7,2013-12-01 02:30:00,
2013-11-30 19:35:00,51.4,38.0,30.13,West,270,6.0,7.0,60,0.00,,,-99.99,WeatherLink 5.7,2013-12-01 02:35:00,
2013-11-30 19:40:00,51.3,37.9,30.13,West,270,6.0,7.0,60,0.00,,,-99.99,WeatherLink 5.7,2013-12-01 02:40:00,
2013-11-30 19:45:00,51.2,37.8,30.14,West,270,6.0,8.0,60,0.00,,,-99.99,WeatherLink 5.7,2013-12-01 02:45:00,
2013-11-30 19:50:00,51.1,37.7,30.13,West,270,6.0,8.0,60,0.00,,,-99.99,WeatherLink 5.7,2013-12-01 02:50:00,
2013-11-30 19:55:00,51.1,37.7,30.13,West,270,7.0,9.0,60,0.00,,,-99.99,WeatherLink 5.7,2013-12-01 02:55:00,
2013-11-30 20:00:00,51.4,37.1,30.13,West,270,6.0,9.0,58,0.00,,,-99.99,WeatherLink 5.7,2013-12-01 03:00:00,
2013-11-30 20:05:00,51.8,37.0,30.10,West,270,5.0,7.0,57,0.00,,,-99.99,WeatherLink 5.7,2013-12-01 03:05:00,
2013-11-30 20:10:00,52.2,37.4,30.10,West,270,6.0,7.0,57,0.00,,,-99.99,WeatherLink 5.7,2013-12-01 03:10:00,
2013-11-30 20:15:00,52.3,37.1,30.10,West,270,6.0,8.0,56,0.00,,,-99.99,WeatherLink 5.7,2013-12-01 03:15:00,
2013-11-30 20:20:00,52.3,36.6,30.10,West,270,5.0,6.0,55,0.00,,,-99.99,WeatherLink 5.7,2013-12-01 03:20:00,
2013-11-30 20:25:00,52.1,36.4,30.10,West,270,4.0,6.0,55,0.00,,,-99.99,WeatherLink 5.7,2013-12-01 03:25:00,
2013-11-30 20:30:00,51.9,36.2,30.10,West,270,4.0,6.0,55,0.00,,,-99.99,WeatherLink 5.7,2013-12-01 03:30:00,
2013-11-30 20:35:00,51.5,36.3,30.10,West,270,4.0,6.0,56,0.00,,,-99.99,WeatherLink 5.7,2013-12-01 03:35:00,
2013-11-30 20:40:00,51.1,36.4,30.11,West,270,5.0,6.0,57,0.00,,,-99.99,WeatherLink 5.7,2013-12-01 03:40:00,
2013-11-30 20:45:00,50.7,36.0,30.11,West,270,4.0,5.0,57,0.00,,,-99.99,WeatherLink 5.7,2013-12-01 03:45:00,
2013-11-30 20:50:00,50.3,36.1,30.11,West,270,3.0,5.0,58,0.00,,,-99.99,WeatherLink 5.7,2013-12-01 03:50:00,
2013-11-30 20:55:00,49.9,35.7,30.12,West,270,4.0,5.0,58,0.00,,,-99.99,WeatherLink 5.7,2013-12-01 03:55:00,
2013-11-30 21:00:00,49.6,35.4,30.12,West,270,4.0,6.0,58,0.00,,,-99.99,WeatherLink 5.7,2013-12-01 04:00:00,
2013-11-30 21:05:00,49.5,34.9,30.11,West,270,4.0,5.0,57,0.00,,,-99.99,WeatherLink 5.7,2013-12-01 04:05:00,
2013-11-30 21:10:00,49.5,34.4,30.11,West,270,5.0,6.0,56,0.00,,,-99.99,WeatherLink 5.7,2013-12-01 04:10:00,
2013-11-30 21:15:00,49.6,34.5,30.11,West,270,4.0,6.0,56,0.00,,,-99.99,WeatherLink 5.7,2013-12-01 04:15:00,
2013-11-30 21:20:00,49.5,34.4,30.11,West,270,2.0,4.0,56,0.00,,,-99.99,WeatherLink 5.7,2013-12-01 04:20:00,
2013-11-30 21:25:00,49.4,34.8,30.11,West,270,4.0,5.0,57,0.00,,,-99.99,WeatherLink 5.7,2013-12-01 04:25:00,
2013-11-30 21:30:00,49.2,34.6,30.11,West,270,3.0,5.0,57,0.00,,,-99.99,WeatherLink 5.7,2013-12-01 04:30:00,
2013-11-30 21:35:00,49.2,35.0,30.11,West,270,2.0,4.0,58,0.00,,,-99.99,WeatherLink 5.7,2013-12-01 04:35:00,
2013-11-30 21:40:00,49.1,34.9,30.11,West,270,3.0,4.0,58,0.00,,,-99.99,WeatherLink 5.7,2013-12-01 04:40:00,
2013-11-30 21:45:00,49.0,34.9,30.11,West,270,2.0,4.0,58,0.00,,,-99.99,WeatherLink 5.7,2013-12-01 04:45:00,
2013-11-30 21:50:00,48.9,35.2,30.11,West,270,3.0,5.0,59,0.00,,,-99.99,WeatherLink 5.7,2013-12-01 04:50:00,
2013-11-30 21:55:00,48.9,35.2,30.11,West,270,4.0,5.0,59,0.00,,,-99.99,WeatherLink 5.7,2013-12-01 04:55:00,
2013-11-30 22:00:00,49.0,35.3,30.11,West,270,4.0,5.0,59,0.00,,,-99.99,WeatherLink 5.7,2013-12-01 05:00:00,
2013-11-30 22:05:00,49.1,35.4,30.12,West,270,4.0,5.0,59,0.00,,,-99.99,WeatherLink 5.7,2013-12-01 05:05:00,
2013-11-30 22:10:00,49.2,35.5,30.12,West,270,4.0,5.0,59,0.00,,,-99.99,WeatherLink 5.7,2013-12-01 05:10:00,
2013-11-30 22:15:00,49.2,35.5,30.12,West,270,3.0,5.0,59,0.00,,,-99.99,WeatherLink 5.7,2013-12-01 05:15:00,
2013-11-30 22:20:00,49.2,35.5,30.12,West,270,3.0,4.0,59,0.00,,,-99.99,WeatherLink 5.7,2013-12-01 05:20:00,
2013-11-30 22:25:00,49.2,35.5,30.12,West,270,4.0,4.0,59,0.00,,,-99.99,WeatherLink 5.7,2013-12-01 05:25:00,
2013-11-30 22:30:00,49.1,35.4,30.12,West,270,3.0,5.0,59,0.00,,,-99.99,WeatherLink 5.7,2013-12-01 05:30:00,
2013-11-30 22:35:00,49.0,35.3,30.12,West,270,2.0,2.0,59,0.00,,,-99.99,WeatherLink 5.7,2013-12-01 05:35:00,
2013-11-30 22:40:00,49.2,35.5,30.12,West,270,2.0,3.0,59,0.00,,,-99.99,WeatherLink 5.7,2013-12-01 05:40:00,
2013-11-30 22:45:00,49.2,35.0,30.12,West,270,3.0,5.0,58,0.00,,,-99.99,WeatherLink 5.7,2013-12-01 05:45:00,
2013-11-30 22:50:00,49.1,34.9,30.12,West,270,4.0,5.0,58,0.00,,,-99.99,WeatherLink 5.7,2013-12-01 05:50:00,
2013-11-30 22:55:00,49.0,34.9,30.11,West,270,4.0,5.0,58,0.00,,,-99.99,WeatherLink 5.7,2013-12-01 05:55:00,
2013-11-30 23:00:00,49.3,35.1,30.11,West,270,4.0,5.0,58,0.00,,,-99.99,WeatherLink 5.7,2013-12-01 06:00:00,
2013-11-30 23:05:00,49.7,35.1,30.10,West,270,4.0,5.0,57,0.00,,,-99.99,WeatherLink 5.7,2013-12-01 06:05:00,
2013-11-30 23:10:00,49.8,35.2,30.10,West,270,4.0,5.0,57,0.00,,,-99.99,WeatherLink 5.7,2013-12-01 06:10:00,
2013-11-30 23:15:00,49.7,35.1,30.10,West,270,4.0,5.0,57,0.00,,,-99.99,WeatherLink 5.7,2013-12-01 06:15:00,
2013-11-30 23:20:00,49.6,35.0,30.10,West,270,3.0,4.0,57,0.00,,,-99.99,WeatherLink 5.7,2013-12-01 06:20:00,
2013-11-30 23:25:00,49.4,34.8,30.10,West,270,2.0,4.0,57,0.00,,,-99.99,WeatherLink 5.7,2013-12-01 06:25:00,
2013-11-30 23:30:00,49.2,35.0,30.10,West,270,3.0,4.0,58,0.00,,,-99.99,WeatherLink 5.7,2013-12-01 06:30:00,
2013-11-30 23:35:00,49.0,35.3,30.09,West,270,4.0,5.0,59,0.00,,,-99.99,WeatherLink 5.7,2013-12-01 06:35:00,
2013-11-30 23:40:00,49.2,35.5,30.09,West,270,4.0,5.0,59,0.00,,,-99.99,WeatherLink 5.7,2013-12-01 06:40:00,
2013-11-30 23:45:00,49.4,35.7,30.10,West,270,2.0,4.0,59,0.00,,,-99.99,WeatherLink 5.7,2013-12-01 06:45:00,
2013-11-30 23:50:00,49.4,35.7,30.09,West,270,3.0,4.0,59,0.00,,,-99.99,WeatherLink 5.7,2013-12-01 06:50:00,
2013-11-30 23:55:00,49.8,35.6,30.09,West,270,4.0,6.0,58,0.00,,,-99.99,WeatherLink 5.7,2013-12-01 06:55:00,